Погода в Мименсингхе

Бангладеш     24°44′47″N   90°24′26″E
темп.,
°C
ветер,
м/с
пор.,
м/с
влажн.,
%
обл.,
%
осадки,
мм/ч
давл.,
гПа
погр.,
м
16 апреля, пт
пт1600:00+28св2241100 0.0 100620
03:00+27вюв3445100 0.0 100676
06:00+25ююв4860100 0.0 1007209
09:00+32юв554495 0.0 1010983
12:00+37ююв332611 0.0 10082462
15:00+40сз251659 0.0 10024193
18:00+33юв472623 0.3 1003175
21:00+27вюв61151100 0.1 1009491
17 апреля, сб
сб1700:00+25в7146559 0.3 1010543
03:00+23вюв49715 0.0 1009303
06:00+22в47732 0.4 1010228
09:00+29вюв45494 0.0 1012786
12:00+35ююв35338 0.0 10092435
15:00+39зюз68215 0.0 10043946
18:00+36ююз22247 0.0 100214
21:00+26юв596372 0.9 1008374
18 апреля, вс
вс1800:00+24в59764 1.3 1010279
03:00+23вюв5117510 0.1 1009350
06:00+22в59781 0.1 1010291
09:00+29юв566363 0.0 10111177
12:00+36ююв353511 0.1 10082466
15:00+39зюз482425 0.0 10024397
18:00+27всв47502 4.6 1003137
21:00+24юв712810 0.3 1008439
19 апреля, пн
пн1900:00+22в58852 0.8 1008314
03:00+22вюв51082100 0.2 1006283
06:00+22вюв598670 2.8 1008267
09:00+28юв577597 0.1 1009900
12:00+32всв66530 0.3 10071525
15:00+36св34350 0.0 10021545
18:00+33в69460 0.0 1002329
21:00+26юв511680 0.1 1005421
20 апреля, вт
вт2000:00+23в611774 0.4 1005334
03:00+23вюв598184 0.1 1005269
06:00+23в598840 0.1 1006297
09:00+27в677794 0.1 1008694
12:00+33всв66520 0.1 10061124
15:00+37ссв44350 0.0 10021480
18:00+31юв812490 0.2 1002599
21:00+26юв513660 0.4 1006387